Paris, TX

2:33 AM CDT on March 28, 2017 (GMT -0500)
Cox

Weather History for KPRX - September, 2013

Change the Weather History Date:

Friday, September 27, 2013

  Actual Average Record
Temperature  
Mean Temperature 78 °F -  
Max Temperature 91 °F 80 °F 91 °F (1998)
Min Temperature 64 °F 58 °F 46 °F (2000)
Cooling Degree Days 12    
Growing Degree Days 28 (Base 50)    
Moisture  
Dew Point 58 °F    
Average Humidity 53    
Maximum Humidity 73    
Minimum Humidity 36    
Precipitation  
Precipitation 0.00 in - - ()
Sea Level Pressure  
Sea Level Pressure 29.94 in    
Wind  
Wind Speed 10 mph (SE)    
Max Wind Speed 18 mph    
Max Gust Speed 25 mph    
Visibility 10 miles    
Events      
Averages and records for this station are not official NWS values.
T = Trace of Precipitation, MM = Missing Value Source: NWS Daily Summary

Daily Weather History Graph

Daily Weather History Graph

Search for Another Location

Airport or City:

Trip Planner

Search our weather history database for the weather conditions in past years. The results will help you decide how hot, cold, wet, or windy it might be!

Date:

Astronomy

Sep. 27, 2013 Rise Set
Actual Time 7:13 AM CDT 7:11 PM CDT
Civil Twilight 6:48 AM CDT 7:36 PM CDT
Nautical Twilight 6:19 AM CDT 8:04 PM CDT
Astronomical Twilight 5:50 AM CDT 8:33 PM CDT
Moon 12:25 AM CDT (9/27) 2:35 PM CDT (9/27)
Length of Visible Light 12h 47m
Length of Day
11h 57m
Last Quarter, 45% of the Moon is Illuminated
Sep 27
Last Quarter
Oct 4
New
Oct 11
First Quarter
Oct 18
Full
Oct 26
Last Quarter

Hourly Weather History & Observations

Time (CDT) Temp. Heat Index Dew Point Humidity Pressure Visibility Wind Dir Wind Speed Gust Speed Precip Events Conditions
12:15 AM 71.6 °F - 55.4 °F 57% 29.93 in 10.0 mi ESE 10.4 mph - N/A   Clear
12:35 AM 69.8 °F - 55.4 °F 60% 29.93 in 10.0 mi ESE 10.4 mph - N/A   Clear
12:55 AM 71.6 °F - 55.4 °F 57% 29.93 in 10.0 mi SE 10.4 mph - N/A   Clear
1:15 AM 69.8 °F - 55.4 °F 60% 29.93 in 10.0 mi ESE 9.2 mph - N/A   Clear
1:35 AM 69.8 °F - 55.4 °F 60% 29.93 in 10.0 mi ESE 10.4 mph - N/A   Clear
1:55 AM 69.8 °F - 55.4 °F 60% 29.93 in 10.0 mi ESE 10.4 mph - N/A   Clear
2:15 AM 69.8 °F - 55.4 °F 60% 29.94 in 10.0 mi ESE 9.2 mph - N/A   Clear
2:35 AM 68.0 °F - 55.4 °F 64% 29.94 in 10.0 mi ESE 10.4 mph - N/A   Clear
2:55 AM 68.0 °F - 55.4 °F 64% 29.94 in 10.0 mi ESE 9.2 mph - N/A   Clear
3:15 AM 68.0 °F - 55.4 °F 64% 29.94 in 10.0 mi East 8.1 mph - N/A   Clear
3:35 AM 66.2 °F - 55.4 °F 68% 29.94 in 10.0 mi ESE 9.2 mph - N/A   Clear
3:55 AM 66.2 °F - 55.4 °F 68% 29.95 in 10.0 mi ESE 8.1 mph - N/A   Clear
4:15 AM 66.2 °F - 55.4 °F 68% 29.95 in 10.0 mi ESE 8.1 mph - N/A   Clear
4:35 AM 66.2 °F - 55.4 °F 68% 29.95 in 10.0 mi ESE 8.1 mph - N/A   Clear
4:55 AM 66.2 °F - 55.4 °F 68% 29.95 in 10.0 mi ESE 9.2 mph - N/A   Clear
5:15 AM 64.4 °F - 55.4 °F 73% 29.95 in 10.0 mi East 9.2 mph - N/A   Clear
5:35 AM 64.4 °F - 55.4 °F 73% 29.95 in 10.0 mi ESE 9.2 mph - N/A   Clear
5:55 AM 64.4 °F - 55.4 °F 73% 29.96 in 10.0 mi ESE 10.4 mph - N/A   Clear
6:15 AM 64.4 °F - 55.4 °F 73% 29.96 in 10.0 mi ESE 9.2 mph - N/A   Clear
6:35 AM 64.4 °F - 55.4 °F 73% 29.97 in 10.0 mi ESE 9.2 mph - N/A   Clear
6:55 AM 64.4 °F - 55.4 °F 73% 29.97 in 10.0 mi ESE 9.2 mph - N/A   Clear
7:15 AM 64.4 °F - 55.4 °F 73% 29.98 in 10.0 mi ESE 8.1 mph - N/A   Clear
7:35 AM 64.4 °F - 55.4 °F 73% 29.98 in 10.0 mi ESE 8.1 mph - N/A   Clear
7:55 AM 64.4 °F - 55.4 °F 73% 29.98 in 10.0 mi ESE 9.2 mph - N/A   Clear
8:15 AM 66.2 °F - 57.2 °F 73% 29.99 in 10.0 mi ESE 9.2 mph - N/A   Clear
8:35 AM 69.8 °F - 57.2 °F 64% 29.99 in 10.0 mi ESE 9.2 mph - N/A   Clear
8:55 AM 71.6 °F - 57.2 °F 60% 29.99 in 10.0 mi SE 8.1 mph - N/A   Clear
9:15 AM 73.4 °F - 57.2 °F 57% 30.00 in 10.0 mi SE 9.2 mph - N/A   Clear
9:35 AM 75.2 °F - 59.0 °F 57% 30.00 in 10.0 mi SE 9.2 mph - N/A   Clear
9:55 AM 78.8 °F - 59.0 °F 51% 30.00 in 10.0 mi SE 9.2 mph - N/A   Clear
10:15 AM 78.8 °F - 60.8 °F 54% 30.00 in 10.0 mi SE 6.9 mph - N/A   Clear
10:35 AM 80.6 °F 81.5 °F 60.8 °F 51% 30.00 in 10.0 mi SE 9.2 mph - N/A   Clear
10:55 AM 82.4 °F 82.9 °F 60.8 °F 48% 30.00 in 10.0 mi South 8.1 mph - N/A   Clear
11:15 AM 84.2 °F 84.4 °F 60.8 °F 45% 30.00 in 10.0 mi SSE 6.9 mph - N/A   Clear
11:35 AM 84.2 °F 83.8 °F 59.0 °F 42% 29.99 in 10.0 mi SSE 10.4 mph - N/A   Clear
11:55 AM 86.0 °F 85.4 °F 59.0 °F 40% 29.99 in 10.0 mi SSE 12.7 mph 18.4 mph N/A   Clear
12:15 PM 87.8 °F 87.6 °F 60.8 °F 40% 29.98 in 10.0 mi SSE 15.0 mph 20.7 mph N/A   Clear
12:35 PM 87.8 °F 87.6 °F 60.8 °F 40% 29.97 in 10.0 mi South 13.8 mph 18.4 mph N/A   Partly Cloudy
12:55 PM 87.8 °F 87.1 °F 59.0 °F 38% 29.97 in 10.0 mi SSE 15.0 mph 19.6 mph N/A   Partly Cloudy
1:15 PM 89.6 °F 88.9 °F 59.0 °F 36% 29.96 in 10.0 mi South 15.0 mph 23.0 mph N/A   Clear
1:35 PM 89.6 °F 88.9 °F 59.0 °F 36% 29.95 in 10.0 mi South 18.4 mph 24.2 mph N/A   Partly Cloudy
1:55 PM 89.6 °F 88.9 °F 59.0 °F 36% 29.95 in 10.0 mi SSE 15.0 mph 20.7 mph N/A   Partly Cloudy
2:15 PM 89.6 °F 88.9 °F 59.0 °F 36% 29.94 in 10.0 mi SE 13.8 mph 24.2 mph N/A   Scattered Clouds
2:35 PM 89.6 °F 88.9 °F 59.0 °F 36% 29.93 in 10.0 mi SSE 15.0 mph 18.4 mph N/A   Partly Cloudy
2:55 PM 89.6 °F 88.9 °F 59.0 °F 36% 29.92 in 10.0 mi South 15.0 mph 21.9 mph N/A   Partly Cloudy
3:15 PM 89.6 °F 88.9 °F 59.0 °F 36% 29.91 in 10.0 mi SSE 11.5 mph 20.7 mph N/A   Partly Cloudy
3:35 PM 91.4 °F 91.4 °F 60.8 °F 36% 29.91 in 10.0 mi SSE 11.5 mph 25.3 mph N/A   Scattered Clouds
3:55 PM 89.6 °F 88.9 °F 59.0 °F 36% 29.91 in 10.0 mi SSE 11.5 mph 19.6 mph N/A   Mostly Cloudy
4:15 PM 89.6 °F 89.5 °F 60.8 °F 38% 29.91 in 10.0 mi South 12.7 mph - N/A   Mostly Cloudy
4:35 PM 89.6 °F 88.9 °F 59.0 °F 36% 29.91 in 10.0 mi SE 13.8 mph 17.3 mph N/A   Mostly Cloudy
4:55 PM 89.6 °F 89.5 °F 60.8 °F 38% 29.91 in 10.0 mi SE 17.3 mph - N/A   Scattered Clouds
5:15 PM 89.6 °F 88.9 °F 59.0 °F 36% 29.91 in 10.0 mi South 15.0 mph - N/A   Mostly Cloudy
5:35 PM 87.8 °F 87.1 °F 59.0 °F 38% 29.90 in 10.0 mi SSE 15.0 mph - N/A   Scattered Clouds
5:55 PM 87.8 °F 87.1 °F 59.0 °F 38% 29.91 in 10.0 mi SSE 13.8 mph - N/A   Scattered Clouds
6:15 PM 86.0 °F 85.4 °F 59.0 °F 40% 29.90 in 10.0 mi SE 13.8 mph - N/A   Partly Cloudy
6:35 PM 84.2 °F 83.8 °F 59.0 °F 42% 29.90 in 10.0 mi SSE 12.7 mph 19.6 mph N/A   Clear
6:55 PM 84.2 °F 83.8 °F 59.0 °F 42% 29.90 in 10.0 mi SE 9.2 mph - N/A   Partly Cloudy
7:15 PM 84.2 °F 83.8 °F 59.0 °F 42% 29.91 in 10.0 mi SSE 10.4 mph - N/A   Mostly Cloudy
7:35 PM 82.4 °F 82.5 °F 59.0 °F 45% 29.91 in 10.0 mi SE 10.4 mph - N/A   Overcast
7:55 PM 82.4 °F 82.5 °F 59.0 °F 45% 29.91 in 10.0 mi SE 9.2 mph - N/A   Mostly Cloudy
8:15 PM 80.6 °F 81.1 °F 59.0 °F 48% 29.91 in 10.0 mi SE 10.4 mph - N/A   Clear
8:35 PM 80.6 °F 81.1 °F 59.0 °F 48% 29.91 in 10.0 mi SE 10.4 mph - N/A   Clear
8:55 PM 78.8 °F - 59.0 °F 51% 29.91 in 8.0 mi SE 10.4 mph - N/A   Clear
9:15 PM 78.8 °F - 59.0 °F 51% 29.91 in 10.0 mi SE 11.5 mph - N/A   Clear
9:35 PM 78.8 °F - 59.0 °F 51% 29.92 in 10.0 mi SE 11.5 mph - N/A   Clear
9:55 PM 78.8 °F - 59.0 °F 51% 29.92 in 10.0 mi SE 10.4 mph - N/A   Clear
10:15 PM 78.8 °F - 59.0 °F 51% 29.92 in 10.0 mi SE 10.4 mph - N/A   Clear
10:35 PM 77.0 °F - 59.0 °F 54% 29.93 in 10.0 mi SE 11.5 mph - N/A   Clear
10:55 PM 77.0 °F - 57.2 °F 50% 29.93 in 10.0 mi SE 10.4 mph - N/A   Clear
11:15 PM 75.2 °F - 57.2 °F 53% 29.93 in 10.0 mi ESE 9.2 mph - N/A   Clear
11:35 PM 75.2 °F - 57.2 °F 53% 29.93 in 10.0 mi SE 8.1 mph - N/A   Clear
11:55 PM 75.2 °F - 57.2 °F 53% 29.94 in 10.0 mi ESE 9.2 mph - N/A   Clear